Dewpoint
54 54 54 54 54 54 54 54 55 54 55 55 55 56 57 57 57 55 37 30 42 54 66 61 51 45 40 52 58 65 59 56 55 54 56 60 59 62 63 58 59 61 61 64 66
54 54 54 53 54 54 54 54 54 54 54 55 54 55 57 57 54 48 47 51 55 66 54 48 46 44 47 44 61 61 55 56 58 56 58 60 59 61 58 58 59 62 63 65 66
54 54 54 54 54 53 53 53 53 54 54 54 54 56 57 56 43 22 58 56 61 69 45 44 42 52 53 53 58 61 56 59 56 57 60 61 61 62 58 58 58 61 62 64 64
54 54 54 54 55 54 54 53 53 53 53 54 54 55 57 53 5 45 64 61 64 59 35 41 41 55 52 50 60 55 59 59 57 59 60 59 63 57 60 59 60 62 63 64 63
54 54 53 53 54 54 54 54 53 53 53 54 54 54 51 35 25 33 69 61 59 51 36 39 52 57 52 55 59 57 60 58 59 58 60 61 60 58 60 60 62 62 62 62 62
54 54 53 53 53 53 53 53 53 53 53 53 53 55 46 21 23 52 56 60 55 43 35 43 53 57 55 53 57 59 60 57 59 60 61 59 60 59 60 63 61 61 61 61 62
54 54 54 53 53 53 53 53 52 52 53 53 52 53 45 25 37 53 53 46 44 32 33 34 51 50 50 46 57 57 57 58 57 60 60 60 59 58 61 63 61 61 61 61 62
53 53 53 53 53 53 52 52 53 53 53 53 54 50 26 30 38 37 38 31 30 27 33 34 43 46 45 42 48 54 55 53 58 59 61 59 55 61 62 61 60 61 61 61 62
54 53 53 53 52 52 52 54 54 54 53 54 48 44 25 43 37 34 38 27 26 26 29 32 42 40 35 30 31 47 47 50 55 59 59 58 56 61 62 59 59 59 60 60 61
53 53 53 53 52 51 53 53 53 54 55 54 49 41 37 34 36 31 37 21 21 24 30 32 33 32 30 29 29 41 45 48 52 56 60 58 57 60 61 59 58 59 59 60 61
54 53 53 53 52 51 49 48 40 37 47 26 27 35 36 38 35 34 35 29 28 29 30 33 33 32 37 30 31 37 38 40 48 57 58 57 57 58 59 60 56 57 59 59 59
53 53 53 52 52 51 48 36 36 37 33 40 40 37 37 37 32 30 31 27 25 26 32 30 31 32 37 30 30 31 30 48 56 59 57 55 56 57 59 61 57 55 55 56 58
53 53 53 52 52 48 41 35 39 41 31 26 39 36 32 35 32 31 30 26 25 29 30 30 30 30 29 29 28 28 28 30 50 55 57 55 54 56 59 61 62 62 56 55 56
55 54 53 52 43 42 38 39 39 36 23 25 30 29 34 33 28 32 31 29 27 27 30 30 31 30 30 29 28 31 27 33 53 50 46 54 47 54 56 58 59 61 59 55 56
55 55 53 50 42 37 35 41 37 26 21 30 33 30 28 26 28 31 33 30 26 26 28 28 26 28 28 28 28 27 26 28 51 46 48 50 44 43 56 55 57 59 61 57 56
54 54 51 48 47 44 44 39 28 25 23 30 33 30 20 22 26 29 31 31 28 26 27 27 26 26 26 27 28 31 25 36 40 43 40 44 43 42 52 53 56 58 60 59 56
53 52 49 47 33 41 40 34 27 24 32 24 26 30 29 20 22 26 28 28 26 24 28 27 26 25 22 20 22 24 22 26 35 37 36 41 43 41 54 57 56 56 60 60 58
51 50 49 49 45 42 36 28 25 28 31 31 31 26 28 21 22 26 26 26 28 26 25 23 21 25 24 23 21 21 21 26 30 33 35 44 39 43 54 57 61 60 61 61 62
50 43 44 44 48 43 34 29 23 29 28 28 27 26 27 27 21 26 26 26 27 26 24 23 23 27 23 20 20 23 19 22 26 29 34 42 46 52 55 56 59 59 60 62 63
45 40 37 44 45 35 30 31 32 31 31 26 25 29 27 29 29 28 26 26 25 26 28 24 23 26 27 23 25 24 27 26 26 25 26 42 43 43 53 54 57 57 57 60 61
41 36 38 44 38 32 26 29 32 25 33 25 26 29 29 30 32 29 25 25 26 28 27 27 25 22 28 25 20 26 31 29 29 29 33 37 41 50 52 54 55 55 58 59 60
37 30 39 35 31 36 30 31 27 17 23 27 25 25 30 32 34 27 23 25 25 29 26 28 20 23 26 27 27 24 26 31 27 31 37 37 37 51 52 52 54 54 57 58 59
37 35 41 32 23 26 31 20 24 21 25 24 27 30 35 33 32 34 27 26 27 24 23 25 23 24 22 25 26 23 23 26 30 37 38 32 33 51 51 50 51 51 54 56 56
38 21 28 23 24 25 26 20 22 27 30 30 32 30 31 34 38 35 34 32 32 39 42 34 24 25 23 24 26 23 26 30 23 26 32 33 41 50 49 48 47 48 51 53 55
37 30 33 20 23 27 25 23 25 23 27 33 33 35 28 29 30 34 34 31 32 39 28 26 25 27 28 27 26 28 27 31 38 25 31 33 42 47 49 47 46 48 50 50 52
37 37 40 36 29 21 25 27 24 24 28 31 32 32 34 34 34 31 30 30 32 30 30 30 29 28 29 31 34 32 30 36 43 45 44 44 43 47 47 46 46 47 47 47 49
47 45 39 38 23 23 22 25 27 30 28 32 34 30 27 29 34 33 35 33 28 31 26 30 27 27 26 30 34 31 30 39 42 45 44 41 43 46 45 46 46 46 46 47 48
Lifted_Index
17 17 17 17 16 16 16 15 15 15 15 15 15 14 13 13 13 13 12 11 10 7 5 5 4 2 -0 -1 -1 -1 -1 -1 -0 0 0 -1 -1 -2 -1 -0 -0 -1 -0 -0 -1
17 17 17 16 16 16 15 15 15 15 15 15 15 14 13 13 13 12 11 11 8 6 6 6 4 1 -1 -1 -1 -1 -1 -1 -1 -0 -0 -1 -2 -2 -1 -0 -0 -0 -0 -0 -0
17 16 16 16 16 15 15 15 15 15 15 15 15 14 13 12 11 10 9 9 6 5 6 7 4 1 -1 -1 -1 -1 -1 -1 -1 -1 -1 -2 -2 -2 -1 -0 -0 -0 -0 -0 -0
16 16 16 16 15 15 15 15 14 14 14 15 15 14 13 11 9 7 6 6 5 5 7 7 3 -0 -1 -1 -1 -1 -2 -1 -1 -1 -1 -2 -2 -1 -1 -1 -0 -0 -0 -0 -0
15 16 15 15 15 15 15 14 14 14 14 14 14 14 12 11 9 7 5 5 5 7 8 6 1 -1 -1 -1 -1 -2 -2 -2 -1 -1 -1 -1 -1 -1 -1 -1 -1 -0 0 0 0
15 15 15 15 15 15 14 15 15 15 14 14 13 13 11 10 10 8 5 5 6 8 9 6 1 -1 -1 -1 -1 -1 -2 -2 -2 -1 -1 -1 -1 -1 -1 -1 -1 -0 -0 0 0
14 15 15 15 15 14 14 15 15 15 14 13 13 11 10 10 9 8 7 7 8 9 9 6 2 0 1 1 0 -1 -2 -2 -2 -2 -2 -2 -2 -1 -2 -2 -1 -1 -0 -0 -0
14 14 14 14 14 14 14 14 14 14 13 13 12 11 10 10 8 7 7 8 9 10 9 7 3 2 2 2 0 -1 -2 -2 -2 -2 -2 -2 -1 -2 -2 -1 -1 -1 -1 -1 -1
13 13 13 14 14 14 14 13 12 12 12 11 11 10 10 9 8 7 8 9 10 10 10 7 3 2 2 2 0 -1 -1 -2 -2 -2 -2 -2 -2 -2 -2 -1 -1 -1 -1 -1 -1
12 12 12 12 13 13 12 11 10 10 10 10 10 9 9 8 7 7 8 9 10 10 8 5 2 1 1 1 0 -0 -1 -1 -2 -2 -2 -2 -2 -2 -2 -1 -1 -1 -1 -1 -1
11 11 11 11 11 11 11 9 9 9 9 9 9 9 8 8 8 8 8 9 10 9 7 4 2 1 0 1 1 0 -1 -1 -2 -2 -2 -2 -2 -2 -2 -1 -1 -1 -1 -1 -1
10 10 10 10 10 9 9 8 8 8 9 9 9 8 7 7 7 7 8 8 9 8 5 3 2 1 0 1 1 0 -1 -2 -2 -3 -2 -1 -1 -2 -2 -1 -1 -1 -1 -1 -1
9 9 9 9 8 8 7 7 7 7 8 8 7 7 6 6 6 7 7 7 7 6 5 3 3 2 1 0 0 0 -0 -1 -2 -3 -2 -1 -1 -2 -2 -1 -1 -1 -1 -0 -1
9 9 9 8 7 6 5 5 5 6 6 6 6 6 5 5 6 6 6 6 6 6 5 4 4 3 1 0 0 0 0 -0 -2 -2 -2 -1 -1 -1 -1 -1 -1 -1 -1 -1 -1
9 9 8 7 6 5 4 4 4 4 4 3 4 4 5 5 5 5 5 5 5 5 4 4 4 4 3 2 1 1 1 0 -1 -2 -2 -1 -1 -1 -1 -1 -1 -1 -2 -1 -1
9 8 7 6 5 4 4 3 2 2 2 2 3 3 3 3 4 4 4 4 4 4 4 4 5 5 5 4 3 2 1 1 -0 -1 -1 -1 -1 -0 -0 -0 -1 -1 -2 -2 -1
8 8 6 5 4 3 3 2 2 1 1 1 1 2 2 2 2 3 3 3 4 4 4 4 5 5 5 5 4 3 1 1 0 -0 -0 -0 -0 -0 -0 -1 -1 -1 -1 -2 -1
8 7 5 4 3 3 2 2 1 1 1 1 1 1 1 1 1 2 2 2 3 4 4 3 4 5 5 5 4 3 2 1 0 0 -0 -0 -0 -0 -1 -1 -1 -1 -2 -2 -2
6 6 5 4 3 2 2 2 1 1 1 1 -0 -0 1 1 1 1 1 1 2 3 3 3 4 4 4 4 4 3 2 2 1 0 -0 -0 -0 -0 -1 -2 -2 -2 -2 -2 -2
5 4 4 3 2 2 2 1 1 1 1 1 -0 -1 -0 0 0 0 0 1 1 2 3 3 3 3 3 3 3 3 3 2 2 1 0 -0 -0 -0 -1 -2 -3 -3 -3 -3 -2
3 3 2 2 2 2 1 2 2 1 1 1 -0 -1 -1 -1 -0 -0 -0 0 1 1 2 2 2 2 2 2 3 3 3 3 2 1 1 0 0 -0 -1 -2 -2 -3 -3 -3 -3
2 2 2 2 2 2 2 2 2 2 1 1 0 -1 -1 -1 -1 -0 -0 -0 0 1 1 1 1 1 1 1 2 2 3 3 2 2 1 1 0 -0 -1 -2 -2 -3 -2 -2 -2
2 2 2 2 2 2 2 2 3 2 2 1 1 -0 -0 -0 -0 -0 -0 -0 0 0 0 0 0 0 0 1 1 2 2 2 2 2 1 1 0 -1 -1 -2 -2 -2 -2 -2 -2
2 3 3 2 2 3 3 3 3 3 2 2 1 0 -0 -0 -0 -0 -0 -0 -0 0 0 0 0 -0 -0 0 1 1 2 2 2 2 2 1 0 -1 -1 -2 -2 -2 -2 -2 -1
3 3 3 3 3 3 3 3 3 3 2 2 1 1 1 0 0 -0 -0 -0 0 0 0 0 0 0 -0 -0 0 1 1 1 1 2 2 1 0 -1 -2 -2 -2 -2 -2 -1 -1
3 3 2 3 3 3 3 3 3 3 2 2 1 1 1 1 1 1 1 1 1 1 0 0 0 0 0 0 0 0 1 1 0 1 1 1 0 -0 -2 -2 -2 -2 -2 -1 -1
3 2 2 2 3 3 3 3 3 3 2 2 2 2 2 1 1 1 1 1 1 1 1 0 0 0 0 0 -0 0 1 1 0 0 1 1 1 -0 -1 -2 -2 -2 -2 -1 -1